[[{"header":{"parameterUnit":"m.s-1","parameterCategory":1,"la1":30.2991,"la2":30.254,"lo1":-89.0895,"lo2":-89.0444,"dy":0.0017,"dx":0.0017,"nx":28,"ny":28,"refTime":"2025-08-24T09:00:00:Z","depth":0,"parameterNumber":2,"parameterNumberName":"U-component_of_WINDS"},"data":[0,0,0,0,0,0,0,0,0,0,0,0,0,0,0,0,0,0,0,0,0,0,0,0,0,0,0,0,0,0,0,0,0,0,0,0,0,0,0,0,0,0,0,0,0,0,0,0,0,0,0,0,0,0,0,0,0,0,-0.7719,-0.7719,0,-0.7707,-0.7707,-0.7706,-0.7689,-0.7689,-0.7688,-0.7688,-0.7675,-0.7675,-0.7675,0,0,0,0,0,0,0,0,0,0,0,0,0,-0.7726,-0.7726,-0.7719,-0.7719,-0.7718,-0.7707,-0.7707,-0.7706,-0.7689,-0.7689,-0.7688,-0.7688,-0.7675,-0.7675,-0.7675,0,0,0,0,0,0,0,0,0,0,0,0,0,-0.7719,-0.7726,-0.7719,-0.7708,-0.7707,-0.7707,-0.7707,-0.7706,-0.7689,-0.7689,-0.7688,-0.7688,-0.7675,-0.7675,-0.7675,-0.7683,0,0,-0.7675,-0.7675,0,0,0,0,0,0,0,0,-0.772,-0.7719,-0.771,-0.7709,-0.7708,-0.7699,-0.7704,-0.7699,-0.7689,-0.7696,-0.7688,-0.7688,-0.7683,-0.7683,-0.7681,-0.7683,-0.7682,-0.7675,-0.7675,-0.7675,-0.7674,0,0,0,0,0,0,0,-0.772,-0.772,-0.7714,-0.771,-0.7709,-0.7704,-0.7703,-0.7703,-0.7692,-0.7695,-0.7694,-0.7693,-0.7683,-0.7681,-0.7681,-0.7682,-0.7675,-0.7675,-0.7674,-0.7674,-0.769,-0.769,0,0,0,0,0,0,-0.7722,-0.772,-0.7714,-0.7714,-0.7713,-0.7704,-0.7703,-0.7702,-0.7692,-0.769,-0.7693,-0.7692,-0.7682,-0.7681,-0.768,-0.7689,-0.7675,-0.7674,-0.7674,-0.7689,-0.769,-0.7691,0,0,0,0,0,0,-0.7723,-0.7722,-0.7715,-0.7716,-0.7715,-0.7705,-0.7704,-0.7702,-0.7701,-0.7691,-0.7689,-0.7694,-0.7681,-0.768,-0.7683,-0.7689,-0.7674,-0.7674,-0.7689,-0.769,-0.769,-0.7707,0,0,0,0,0,0,-0.7723,-0.7722,-0.7725,-0.7717,-0.7715,-0.7718,-0.7705,-0.7702,-0.7701,-0.7699,-0.7691,-0.7689,-0.7681,-0.7683,-0.7683,-0.7688,-0.7674,-0.7688,-0.7689,-0.769,-0.7706,-0.7709,-0.7711,0,0,0,0,0,-0.7723,-0.7731,-0.7726,-0.7725,-0.7719,-0.7718,-0.7717,-0.7708,-0.7701,-0.7704,-0.7698,-0.7689,-0.7688,-0.7683,-0.7683,-0.7688,-0.7688,-0.7689,-0.769,-0.7705,-0.7708,-0.7711,0,0,0,0,0,0,-0.774,-0.7729,-0.7724,-0.7728,-0.7724,-0.7715,-0.7718,-0.7711,-0.7709,-0.7707,-0.7696,-0.7694,-0.7698,-0.7693,-0.7688,-0.7696,-0.7687,-0.7688,-0.7699,-0.7701,-0.7703,-0.7704,-0.7674,0,0,0,0,0,-0.7744,-0.7744,-0.7735,-0.774,-0.7738,-0.7729,-0.7728,-0.7722,-0.7717,-0.7715,-0.7708,-0.7704,-0.7703,-0.7702,-0.77,-0.7706,-0.7704,-0.771,-0.7712,-0.7714,-0.7714,-0.7717,-0.7719,-0.7694,-0.7694,-0.7694,0,0,-0.7753,-0.7747,-0.7748,-0.7743,-0.7739,-0.774,-0.7728,-0.7728,-0.7728,-0.7715,-0.7716,-0.7712,-0.7706,-0.771,-0.7712,-0.7707,-0.7721,-0.7715,-0.7716,-0.7716,-0.7718,-0.772,-0.7723,-0.7695,-0.7695,-0.7694,0,0,-0.7768,-0.7764,-0.7768,-0.7765,-0.7759,-0.7753,-0.7754,-0.7746,-0.7742,-0.7744,-0.7734,-0.7734,-0.7732,-0.7728,-0.7726,-0.7741,-0.7732,-0.7741,-0.7751,-0.7754,-0.7756,-0.7758,-0.7763,-0.7764,-0.7741,-0.7742,-0.7742,0,-0.778,-0.778,-0.7771,-0.7772,-0.7771,-0.7759,-0.7762,-0.7759,-0.7753,-0.7752,-0.7747,-0.7744,-0.774,-0.7743,-0.7746,-0.7745,-0.7746,-0.7741,-0.7757,-0.7758,-0.776,-0.7764,-0.7766,-0.7742,-0.7742,-0.7742,-0.7742,0,-0.7794,-0.7794,-0.7798,-0.7793,-0.7792,-0.7794,-0.7785,-0.7785,-0.7779,-0.7773,-0.7775,-0.7769,-0.7766,-0.7766,-0.776,-0.7769,-0.7766,-0.7759,-0.7749,-0.7763,-0.7767,-0.7769,-0.7744,-0.7743,-0.7743,-0.7743,0,0,-0.7819,-0.7809,-0.781,-0.7808,-0.7801,-0.7801,-0.7803,-0.78,-0.78,-0.7797,-0.7798,-0.7797,-0.7791,-0.7788,-0.7781,-0.7784,-0.7796,-0.7777,-0.7776,-0.778,-0.7804,-0.7809,-0.7811,-0.7791,-0.7791,-0.7791,-0.7804,0,-0.7833,-0.7836,-0.7828,-0.7833,-0.7833,-0.7822,-0.7824,-0.782,-0.7815,-0.7814,-0.7808,-0.7808,-0.78,-0.7798,-0.78,-0.7794,-0.78,-0.7793,-0.7791,-0.7791,-0.7792,-0.7813,-0.7818,-0.783,-0.7806,-0.7806,-0.7806,0,-0.7849,-0.7846,-0.7851,-0.7844,-0.7844,-0.7846,-0.7843,-0.7842,-0.7838,-0.7834,-0.7832,-0.7824,-0.7825,-0.7817,-0.7818,-0.7814,-0.7813,-0.781,-0.781,-0.7808,-0.7799,-0.7811,-0.7834,-0.7836,-0.7809,-0.7809,-0.7808,0,-0.7866,-0.7864,-0.7866,-0.7865,-0.7857,-0.7858,-0.7855,-0.785,-0.7849,-0.7846,-0.7845,-0.7843,-0.7841,-0.7839,-0.7831,-0.7826,-0.7833,-0.7824,-0.783,-0.783,-0.7831,-0.7831,-0.7853,-0.7832,-0.7832,-0.7832,-0.7832,0,-0.7881,-0.7885,-0.7874,-0.7875,-0.7879,-0.787,-0.7873,-0.7869,-0.7865,-0.7865,-0.7856,-0.7857,-0.7846,-0.7846,-0.784,-0.7841,-0.7841,-0.7838,-0.7836,-0.7838,-0.7838,-0.7836,-0.7835,-0.7832,-0.7832,-0.7832,-0.7832,0,-0.79,-0.7893,-0.7895,-0.7888,-0.7886,-0.7889,-0.7883,-0.7884,-0.7878,-0.7879,-0.7879,-0.787,-0.7869,-0.7861,-0.7858,-0.7854,-0.7858,-0.7855,-0.7859,-0.7858,-0.7864,-0.7863,-0.7885,-0.7887,-0.7865,-0.7865,-0.7866,0,-0.791,-0.7913,-0.7906,-0.7905,-0.7903,-0.7902,-0.7901,-0.7893,-0.7892,-0.7887,-0.7888,-0.7887,-0.7885,-0.7883,-0.7877,-0.7874,-0.7871,-0.7878,-0.787,-0.7872,-0.787,-0.7869,-0.7869,-0.788,-0.788,-0.788,-0.788,0,-0.7929,-0.7925,-0.7924,-0.7922,-0.7921,-0.7918,-0.7916,-0.7916,-0.7906,-0.7906,-0.7905,-0.7903,-0.79,-0.7898,-0.7895,-0.7892,-0.7884,-0.7883,-0.7884,-0.7886,-0.7888,-0.7886,-0.7863,-0.7883,-0.7882,-0.7882,-0.7882,-0.7882,-0.7943,-0.7945,-0.794,-0.7939,-0.7936,-0.7934,-0.7934,-0.7929,-0.7928,-0.7925,-0.792,-0.792,-0.7915,-0.791,-0.7907,-0.7906,-0.7902,-0.7904,-0.7904,-0.7904,-0.7905,-0.7889,-0.7906,-0.7906,-0.7906,-0.7905,-0.7905,0,-0.7961,-0.7957,-0.7956,-0.7953,-0.7952,-0.7946,-0.7942,-0.7942,-0.7942,-0.7938,-0.7936,-0.7935,-0.7933,-0.7927,-0.7924,-0.7925,-0.7922,-0.7925,-0.7924,-0.7923,-0.7909,-0.7908,-0.7927,-0.7927,-0.7927,-0.7927,-0.7927,-0.7927,-0.7969,-0.7972,-0.7968,-0.7968,-0.7965,-0.7964,-0.7963,-0.796,-0.7957,-0.7956,-0.7955,-0.7951,-0.7946,-0.7943,-0.7941,-0.7939,-0.7939,-0.7943,-0.794,-0.7926,-0.7924,-0.7922,-0.7921,-0.7943,-0.7943,-0.7953,-0.7953,-0.7954]},{"header":{"parameterUnit":"m.s-1","parameterCategory":1,"la1":30.2991,"la2":30.254,"lo1":-89.0895,"lo2":-89.0444,"dy":0.0017,"dx":0.0017,"nx":28,"ny":28,"refTime":"2025-08-24T09:00:00:Z","depth":0,"parameterNumber":3,"parameterNumberName":"V-component_of_WINDS"},"data":[0,0,0,0,0,0,0,0,0,0,0,0,0,0,0,0,0,0,0,0,0,0,0,0,0,0,0,0,0,0,0,0,0,0,0,0,0,0,0,0,0,0,0,0,0,0,0,0,0,0,0,0,0,0,0,0,0,0,2.8273,2.8273,0,2.8246,2.8245,2.8245,2.8171,2.8169,2.8168,2.8166,2.8138,2.8139,2.814,0,0,0,0,0,0,0,0,0,0,0,0,0,2.8262,2.8262,2.8273,2.8273,2.8273,2.8246,2.8245,2.8245,2.8171,2.8169,2.8167,2.8165,2.8138,2.8139,2.814,0,0,0,0,0,0,0,0,0,0,0,0,0,2.8254,2.8262,2.8273,2.8233,2.8229,2.8246,2.8245,2.8245,2.8172,2.8169,2.8167,2.8165,2.8138,2.8139,2.814,2.8195,0,0,2.8143,2.8144,0,0,0,0,0,0,0,0,2.8254,2.8254,2.8239,2.8235,2.8231,2.8209,2.8231,2.8228,2.8172,2.8193,2.8166,2.8163,2.8164,2.8163,2.8163,2.8194,2.8192,2.8144,2.8144,2.8145,2.8145,0,0,0,0,0,0,0,2.8255,2.8255,2.8262,2.8239,2.8234,2.8215,2.8212,2.823,2.8192,2.8191,2.8186,2.8183,2.8161,2.8162,2.8162,2.8192,2.8144,2.8145,2.8145,2.8146,2.8264,2.8267,0,0,0,0,0,0,2.8261,2.8256,2.8263,2.8262,2.8237,2.8218,2.8213,2.8219,2.8192,2.8186,2.8186,2.818,2.8161,2.816,2.816,2.8221,2.8145,2.8146,2.8146,2.8262,2.8265,2.8267,0,0,0,0,0,0,2.8261,2.8263,2.8264,2.8257,2.8256,2.822,2.8227,2.8219,2.822,2.8188,2.8181,2.8193,2.8159,2.8159,2.8186,2.8219,2.8146,2.8147,2.8259,2.8263,2.8266,2.8345,0,0,0,0,0,0,2.8261,2.8263,2.8284,2.8258,2.8257,2.8291,2.8229,2.8221,2.8222,2.8215,2.8193,2.8187,2.8157,2.8185,2.8187,2.822,2.8148,2.8256,2.826,2.8265,2.8339,2.8351,2.8361,0,0,0,0,0,2.8261,2.8308,2.8285,2.8287,2.8282,2.8293,2.8292,2.8257,2.8225,2.8245,2.8224,2.8188,2.8216,2.8189,2.8191,2.8224,2.8253,2.8259,2.8265,2.8334,2.8348,2.836,0,0,0,0,0,0,2.8339,2.8304,2.8278,2.8318,2.8309,2.8281,2.8305,2.8274,2.8274,2.8267,2.8224,2.8219,2.8253,2.8241,2.8211,2.8274,2.8228,2.8235,2.8281,2.8294,2.8304,2.8306,2.8149,0,0,0,0,0,2.836,2.8372,2.8341,2.8379,2.8376,2.8342,2.8345,2.8319,2.8308,2.8304,2.8285,2.8276,2.8282,2.8288,2.8292,2.8337,2.833,2.8361,2.8372,2.8381,2.8386,2.8408,2.842,2.8286,2.8286,2.8286,0,0,2.8405,2.8387,2.8398,2.8394,2.8384,2.8397,2.8339,2.8356,2.8365,2.8307,2.8331,2.8317,2.8304,2.834,2.8355,2.8331,2.8422,2.8388,2.8395,2.8396,2.8415,2.8427,2.8439,2.8289,2.8289,2.8288,0,0,2.8493,2.8482,2.8511,2.8502,2.8487,2.8464,2.8471,2.8447,2.8436,2.8459,2.8415,2.8426,2.8438,2.843,2.8428,2.8511,2.8477,2.8514,2.857,2.8592,2.8602,2.8612,2.864,2.8651,2.852,2.852,2.852,0,2.8551,2.8569,2.853,2.855,2.8549,2.8496,2.8525,2.8518,2.8506,2.8506,2.848,2.8493,2.8481,2.8514,2.8534,2.8534,2.854,2.8516,2.8604,2.8613,2.8621,2.8647,2.8659,2.8525,2.8524,2.8524,2.8523,0,2.864,2.8653,2.8679,2.8667,2.8669,2.8694,2.8658,2.8665,2.8638,2.8618,2.8642,2.8625,2.8624,2.863,2.8605,2.8659,2.8644,2.8612,2.8565,2.8639,2.8663,2.8673,2.8531,2.853,2.8528,2.8527,0,0,2.8776,2.8742,2.8752,2.8746,2.8725,2.8735,2.8756,2.8755,2.8761,2.8754,2.877,2.8781,2.875,2.8748,2.8721,2.874,2.8806,2.8704,2.8703,2.8723,2.8863,2.8887,2.8899,2.8783,2.8785,2.8786,2.8863,0,2.8858,2.8892,2.8858,2.8899,2.891,2.886,2.8878,2.8867,2.8848,2.8855,2.8834,2.8842,2.8801,2.8799,2.8816,2.8794,2.8833,2.8788,2.8797,2.8798,2.8801,2.8912,2.8938,2.9011,2.8873,2.8874,2.8876,0,2.8959,2.8955,2.8998,2.8973,2.8976,2.8994,2.8989,2.8996,2.8982,2.8967,2.8964,2.8931,2.8949,2.8904,2.8928,2.8898,2.89,2.889,2.8892,2.8891,2.8841,2.8913,2.9034,2.9045,2.8891,2.8889,2.8888,0,2.9052,2.9059,2.9084,2.908,2.9053,2.9066,2.9055,2.9039,2.904,2.9036,2.9036,2.9034,2.9033,2.9033,2.9,2.897,2.9028,2.898,2.9015,2.9016,2.9029,2.9028,2.9151,2.9032,2.9032,2.9032,2.9031,0,2.9147,2.9174,2.9125,2.9141,2.917,2.913,2.916,2.9143,2.9129,2.9141,2.9097,2.9109,2.9065,2.9072,2.9046,2.907,2.907,2.9058,2.905,2.9061,2.9062,2.9061,2.9054,2.9035,2.9034,2.9033,2.9033,0,2.9256,2.9225,2.9249,2.922,2.9214,2.9236,2.9211,2.9224,2.9202,2.9217,2.9218,2.9184,2.9189,2.9156,2.9156,2.9139,2.9174,2.9159,2.9179,2.9174,2.921,2.9206,2.9335,2.9349,2.9222,2.9224,2.9225,0,2.9318,2.9338,2.9311,2.9315,2.9306,2.9314,2.9314,2.9275,2.9277,2.9262,2.9277,2.9279,2.9278,2.9289,2.9264,2.9263,2.9247,2.9292,2.9246,2.9256,2.9246,2.9245,2.9246,2.9301,2.9303,2.9304,2.9305,0,2.9431,2.9414,2.9416,2.9413,2.9414,2.941,2.9403,2.9409,2.9366,2.9371,2.9375,2.9375,2.9374,2.9376,2.937,2.9358,2.9324,2.9319,2.9327,2.9338,2.9348,2.9342,2.9203,2.9317,2.9315,2.9315,2.9314,2.9313,2.9517,2.9532,2.9515,2.9518,2.9508,2.9502,2.9513,2.9492,2.9495,2.9491,2.9467,2.9476,2.9461,2.9449,2.944,2.9446,2.9425,2.9436,2.9439,2.9442,2.9448,2.9348,2.9445,2.9445,2.9445,2.9444,2.9444,0,2.9627,2.9613,2.9617,2.9607,2.961,2.9578,2.9567,2.9572,2.958,2.9568,2.9568,2.9573,2.9574,2.9549,2.9547,2.9556,2.9541,2.9557,2.9555,2.9553,2.9468,2.9461,2.957,2.957,2.957,2.957,2.957,2.9569,2.9684,2.9706,2.9687,2.9704,2.969,2.9698,2.9695,2.9689,2.9679,2.9686,2.9687,2.967,2.9653,2.9649,2.9648,2.9641,2.9641,2.9663,2.965,2.9571,2.9559,2.9547,2.954,2.9664,2.9664,2.9734,2.9734,2.9735]}]]